Starlink 31560

operational
NORAD ID: 59361 Int'l Des: 2024-060 Owner: SPXS Country: US Constellation: starlink
LEOCIRCULAR

Starlink 31560について

説明を読み込み中...

リアルタイム位置

3D地球を読み込み中...

次回通過

高度履歴

Altitude vs Time

uPlot chart will show altitude changes over time

軌道要素

1 59361U 24060P 25352.36600131 .00000041 00000-0 11030-4 0 9997
2 59361 43.0022 359.2817 0001102 279.8769 80.1958 15.27579848 97625
Epoch: Dec 18, 2025 • Age: 16 hours

現在のステータス

高度 482.6 km
速度 7.63 km/s
衛星直下点 4.75°N, 63.97°E
打ち上げ日 Mar 31, 2024
運用期間 1.7 years
タイプ internet

技術仕様

分類 Payload
質量 730.00 kg
乾燥質量 700.00 kg
総質量 730.00 kg
長さ 0.30 m
直径 4.10 m
スパン 29.00 m
形状 Box + pan
製造者 SPXS
バスタイプ Starlink V2M
フェーズステータス In Orbit
所有者/国 SPXS/US

大規模コンステレーション

Loading constellations...